CAL582 ZSPD-RCKH

Flight info

Callsign CAL582
Flight time N/A
Altitude 32100
Route MIG82D MIGOL B591 KASKA L2 BERBA B591 APU W4 PIDGY T13 LUGIA LUGI2B
Aircraft B738/M-SDE2E3FGHIRWXY/LB1

Departure

Time N/A
Airport Shanghai Pudong International Airport (ZSPD)

Arrival

Time 2026-05-01 08:30
Airport Kaohsiung International Airport (RCKH)
Time Latitude Longitude Altitude Speed Heading
2026-05-01 07:23 28.41737 123.57260 32160 ft 464 kts 206°
2026-05-01 07:24 28.32691 123.53312 32157 ft 465 kts 206°
2026-05-01 07:24 28.26631 123.50688 32155 ft 465 kts 206°
2026-05-01 07:25 28.20568 123.48072 32157 ft 464 kts 206°
2026-05-01 07:25 28.14545 123.45480 32159 ft 464 kts 205°
2026-05-01 07:26 28.08486 123.42874 32156 ft 464 kts 205°
2026-05-01 07:26 28.02445 123.40278 32158 ft 465 kts 205°
2026-05-01 07:27 27.96440 123.37701 32157 ft 464 kts 205°
2026-05-01 07:27 27.90378 123.35104 32155 ft 464 kts 205°
2026-05-01 07:28 27.84311 123.32507 32153 ft 467 kts 205°
2026-05-01 07:28 27.78212 123.29899 32156 ft 465 kts 205°
2026-05-01 07:29 27.72151 123.27310 32151 ft 464 kts 205°
2026-05-01 07:29 27.66110 123.24733 32146 ft 464 kts 205°
2026-05-01 07:30 27.60092 123.22168 32149 ft 465 kts 205°
2026-05-01 07:30 27.53998 123.19574 32153 ft 464 kts 205°
2026-05-01 07:31 27.47958 123.17007 32152 ft 465 kts 205°
2026-05-01 07:32 27.32804 123.10581 32149 ft 465 kts 205°
2026-05-01 07:33 27.23741 123.06749 32146 ft 465 kts 205°
2026-05-01 07:33 27.14640 123.02908 32150 ft 464 kts 205°
2026-05-01 07:34 27.05888 122.98418 32150 ft 458 kts 216°
2026-05-01 07:35 27.00561 122.94486 32151 ft 458 kts 219°
2026-05-01 07:35 26.95381 122.90333 32150 ft 457 kts 220°
2026-05-01 07:36 26.90222 122.86159 32148 ft 458 kts 220°
2026-05-01 07:36 26.85064 122.82015 32153 ft 455 kts 220°
2026-05-01 07:37 26.77315 122.75841 32149 ft 455 kts 219°
2026-05-01 07:37 26.72144 122.71742 32150 ft 457 kts 219°
2026-05-01 07:38 26.66951 122.67638 32148 ft 453 kts 219°
2026-05-01 07:39 26.59192 122.61512 32150 ft 456 kts 220°
2026-05-01 07:39 26.51445 122.55405 32151 ft 454 kts 219°
2026-05-01 07:40 26.46301 122.51357 32148 ft 453 kts 220°
2026-05-01 07:40 26.41152 122.47311 32150 ft 452 kts 220°
2026-05-01 07:41 26.35978 122.43248 32150 ft 453 kts 220°
2026-05-01 07:42 26.28268 122.37198 32149 ft 453 kts 220°
2026-05-01 07:42 26.23103 122.33154 32149 ft 453 kts 219°
2026-05-01 07:43 26.17932 122.29108 32149 ft 453 kts 219°
2026-05-01 07:43 26.10224 122.23107 32149 ft 453 kts 219°
2026-05-01 07:44 25.99861 122.15187 32144 ft 453 kts 219°
2026-05-01 07:45 25.94653 122.11214 32143 ft 453 kts 219°
2026-05-01 07:45 25.89461 122.07254 32142 ft 452 kts 219°
2026-05-01 07:46 25.84252 122.03282 32148 ft 453 kts 219°
2026-05-01 07:47 25.76479 121.97362 32148 ft 450 kts 219°
2026-05-01 07:47 25.71304 121.93423 32149 ft 453 kts 219°
2026-05-01 07:48 25.63511 121.87431 32141 ft 453 kts 219°
2026-05-01 07:48 25.58359 121.83455 32144 ft 453 kts 219°
2026-05-01 07:49 25.50575 121.77460 32140 ft 454 kts 219°
2026-05-01 07:50 25.45363 121.73453 32138 ft 455 kts 220°
2026-05-01 07:50 25.37608 121.67503 32134 ft 455 kts 219°
2026-05-01 07:51 25.32409 121.63522 32125 ft 453 kts 219°
2026-05-01 07:52 25.24611 121.57556 32127 ft 454 kts 220°
2026-05-01 07:52 25.19467 121.53457 32117 ft 451 kts 224°
2026-05-01 07:53 25.12859 121.46175 32110 ft 446 kts 233°
2026-05-01 07:53 25.08839 121.40986 32103 ft 445 kts 234°
2026-05-01 07:55 24.98860 121.27921 32098 ft 446 kts 234°
2026-05-01 07:56 24.88789 121.14896 32102 ft 447 kts 233°
2026-05-01 07:57 24.82363 121.07451 32095 ft 453 kts 223°
2026-05-01 07:58 24.71524 121.00047 32098 ft 458 kts 214°
2026-05-01 07:59 24.60419 120.93188 32147 ft 458 kts 214°
2026-05-01 08:00 24.43851 120.82742 31896 ft 457 kts 214°
2026-05-01 08:01 24.35564 120.77550 31117 ft 457 kts 213°
2026-05-01 08:01 24.32770 120.75867 30857 ft 458 kts 213°
2026-05-01 08:01 24.29990 120.74209 30601 ft 460 kts 212°
2026-05-01 08:02 24.24319 120.70842 30077 ft 459 kts 212°
2026-05-01 08:02 24.21505 120.69172 29819 ft 459 kts 212°
2026-05-01 08:03 24.15900 120.65838 29304 ft 461 kts 212°
2026-05-01 08:03 24.13053 120.64143 29041 ft 461 kts 212°
2026-05-01 08:03 24.07376 120.60757 28529 ft 464 kts 212°
2026-05-01 08:04 24.01700 120.57375 28023 ft 465 kts 212°
2026-05-01 08:04 23.96020 120.53991 27519 ft 464 kts 212°
2026-05-01 08:05 23.90317 120.50597 27017 ft 466 kts 212°
2026-05-01 08:05 23.87455 120.48895 26766 ft 467 kts 212°
2026-05-01 08:05 23.84591 120.47204 26519 ft 467 kts 211°
2026-05-01 08:06 23.78769 120.43886 26015 ft 469 kts 210°
2026-05-01 08:06 23.72942 120.40630 25518 ft 471 kts 210°
2026-05-01 08:07 23.67114 120.37378 25023 ft 468 kts 210°
2026-05-01 08:07 23.61307 120.34132 24529 ft 466 kts 210°
2026-05-01 08:08 23.58447 120.32532 24283 ft 464 kts 210°
2026-05-01 08:08 23.52668 120.29294 23788 ft 460 kts 210°
2026-05-01 08:09 23.46988 120.26112 23296 ft 457 kts 210°
2026-05-01 08:09 23.44178 120.24538 23057 ft 455 kts 210°
2026-05-01 08:09 23.41340 120.22950 22810 ft 453 kts 210°
2026-05-01 08:10 23.35710 120.19872 22324 ft 450 kts 207°
2026-05-01 08:10 23.29833 120.17522 21861 ft 451 kts 200°
2026-05-01 08:11 23.23757 120.15673 21378 ft 447 kts 198°
2026-05-01 08:11 23.17725 120.13949 20895 ft 444 kts 198°
2026-05-01 08:12 23.11851 120.12255 20315 ft 424 kts 198°
2026-05-01 08:12 23.09023 120.11430 19965 ft 413 kts 198°
2026-05-01 08:12 23.03588 120.09827 19248 ft 396 kts 199°
2026-05-01 08:13 23.00943 120.09038 18895 ft 393 kts 199°
2026-05-01 08:13 22.98301 120.08244 18565 ft 393 kts 199°
2026-05-01 08:13 22.93043 120.06669 17831 ft 390 kts 198°
2026-05-01 08:14 22.90404 120.06055 17470 ft 384 kts 192°
2026-05-01 08:14 22.87707 120.05984 16991 ft 385 kts 178°
2026-05-01 08:14 22.85116 120.06619 16510 ft 385 kts 165°
2026-05-01 08:14 22.82568 120.07644 16034 ft 381 kts 162°
2026-05-01 08:15 22.80134 120.08742 15571 ft 377 kts 160°
2026-05-01 08:15 22.75449 120.10931 14982 ft 360 kts 160°
2026-05-01 08:15 22.73149 120.11990 14508 ft 357 kts 161°
2026-05-01 08:16 22.70873 120.13020 14021 ft 354 kts 161°
2026-05-01 08:16 22.68592 120.14042 13564 ft 351 kts 161°
2026-05-01 08:16 22.66324 120.15050 13045 ft 349 kts 161°
2026-05-01 08:16 22.64086 120.16043 12576 ft 346 kts 161°
2026-05-01 08:17 22.61856 120.17033 12120 ft 344 kts 161°
2026-05-01 08:17 22.59640 120.18016 11641 ft 342 kts 161°
2026-05-01 08:17 22.57473 120.18980 11133 ft 333 kts 160°
2026-05-01 08:17 22.55367 120.19919 10662 ft 320 kts 160°
2026-05-01 08:18 22.53360 120.20843 10205 ft 310 kts 156°
2026-05-01 08:18 22.50151 120.23684 9504 ft 288 kts 130°
2026-05-01 08:19 22.47815 120.27016 8904 ft 267 kts 129°
2026-05-01 08:19 22.46679 120.28597 8251 ft 273 kts 130°
2026-05-01 08:19 22.45495 120.30225 7548 ft 278 kts 126°
2026-05-01 08:19 22.44571 120.32062 6857 ft 281 kts 108°
2026-05-01 08:20 22.44212 120.34110 6387 ft 275 kts 97°
2026-05-01 08:20 22.44045 120.36150 5900 ft 270 kts 96°
2026-05-01 08:20 22.43886 120.38128 5421 ft 264 kts 97°
2026-05-01 08:20 22.43689 120.40094 4935 ft 259 kts 98°
2026-05-01 08:21 22.43496 120.42008 4453 ft 255 kts 94°
2026-05-01 08:21 22.43607 120.43874 4069 ft 247 kts 74°
2026-05-01 08:21 22.44481 120.45416 3709 ft 241 kts 41°
2026-05-01 08:21 22.45869 120.46411 3364 ft 235 kts 32°
2026-05-01 08:22 22.47247 120.47324 3017 ft 229 kts 44°
2026-05-01 08:22 22.48039 120.48735 2720 ft 217 kts 78°
2026-05-01 08:22 22.48211 120.50301 2728 ft 205 kts 86°
2026-05-01 08:22 22.48291 120.51854 2737 ft 204 kts 86°
2026-05-01 08:23 22.48369 120.53378 2747 ft 205 kts 86°
2026-05-01 08:23 22.48493 120.54903 2756 ft 202 kts 79°
2026-05-01 08:23 22.48872 120.56300 2763 ft 184 kts 66°
2026-05-01 08:23 22.49509 120.57436 2773 ft 175 kts 52°
2026-05-01 08:24 22.50504 120.58183 2766 ft 173 kts 19°
2026-05-01 08:24 22.51689 120.58269 2781 ft 173 kts 350°
2026-05-01 08:24 22.52848 120.57873 2753 ft 173 kts 344°
2026-05-01 08:24 22.53970 120.57415 2759 ft 172 kts 342°
2026-05-01 08:25 22.55083 120.56919 2749 ft 173 kts 341°
2026-05-01 08:25 22.56206 120.56426 2748 ft 173 kts 341°
2026-05-01 08:25 22.57217 120.55707 2740 ft 179 kts 306°
2026-05-01 08:25 22.57478 120.54419 2746 ft 181 kts 257°
2026-05-01 08:26 22.57156 120.53093 2737 ft 180 kts 262°
2026-05-01 08:26 22.57134 120.51736 2729 ft 181 kts 274°
2026-05-01 08:26 22.57221 120.50375 2718 ft 181 kts 273°
2026-05-01 08:26 22.57266 120.49023 2476 ft 180 kts 272°
2026-05-01 08:27 22.57299 120.47675 2079 ft 176 kts 273°
2026-05-01 08:27 22.57343 120.46411 1825 ft 161 kts 274°
2026-05-01 08:27 22.57382 120.45225 1649 ft 155 kts 274°
2026-05-01 08:27 22.57419 120.44068 1447 ft 154 kts 274°
2026-05-01 08:28 22.57457 120.42916 1250 ft 149 kts 273°
2026-05-01 08:28 22.57492 120.41804 1062 ft 148 kts 273°
2026-05-01 08:28 22.57527 120.40700 864 ft 145 kts 272°
2026-05-01 08:28 22.57563 120.39606 684 ft 145 kts 273°
2026-05-01 08:29 22.57594 120.38524 495 ft 142 kts 271°
2026-05-01 08:29 22.57616 120.37464 322 ft 142 kts 270°
2026-05-01 08:29 22.57635 120.36407 203 ft 139 kts 274°
2026-05-01 08:29 22.57705 120.35364 47 ft 136 kts 272°
2026-05-01 08:30 22.57704 120.34558 39 ft 72 kts 273°
2026-05-01 08:30 22.57725 120.34202 39 ft 38 kts 275°
2026-05-01 08:30 22.57735 120.33932 39 ft 20 kts 268°
2026-05-01 08:30 22.57730 120.33811 39 ft 15 kts 267°
2026-05-01 08:31 22.57732 120.33697 39 ft 15 kts 272°
2026-05-01 08:31 22.57736 120.33585 39 ft 14 kts 272°
2026-05-01 08:31 22.57698 120.33504 39 ft 13 kts 191°
2026-05-01 08:31 22.57608 120.33508 38 ft 12 kts 145°
2026-05-01 08:32 22.57546 120.33571 39 ft 12 kts 136°
2026-05-01 08:32 22.57485 120.33633 39 ft 11 kts 136°
2026-05-01 08:32 22.57427 120.33694 38 ft 11 kts 127°
2026-05-01 08:32 22.57420 120.33772 39 ft 10 kts 91°
2026-05-01 08:33 22.57385 120.33793 39 ft 6 kts 195°
2026-05-01 08:33 22.57339 120.33779 39 ft 6 kts 195°
2026-05-01 08:33 22.57296 120.33775 38 ft 5 kts 168°
2026-05-01 08:33 22.57273 120.33805 39 ft 5 kts 99°
2026-05-01 08:34 22.57271 120.33844 38 ft 4 kts 92°
2026-05-01 08:34 22.57270 120.33868 38 ft 0 kts 92°